Regional Weather Roundup
Issued by NWS

Home | Current Version | Previous Version | Graphics & Text | Print | Product List | Glossary On
Versions: 1 2 3 4 5 6 7 8 9 10 11 12 13 14 15 16 17 18 19 20 21 22 23 24 25 26 27 28 29 30 31 32 33 34 35 36 37 38 39 40 41 42 43 44 45 46 47 48 49 50
000
ASUS43 KOAX 012310
RWRNE

WEATHER ROUNDUP FOR NEBRASKA
NATIONAL WEATHER SERVICE OMAHA NE
600 PM CDT WED APR 01 2015

NOTES: SATELLITE DATA IS BEING USED TO AUGMENT CLOUD COVER ABOVE
       12000 FEET.
       "FAIR" INDICATES FEW OR NO CLOUDS BELOW 12,000 FEET WITH NO
       SIGNIFICANT WEATHER AND/OR OBSTRUCTIONS TO VISIBILITY.

  * THESE STATIONS DO NOT REPORT WEATHER SUCH AS RAIN...SNOW OR FOG.

NEZ001>004-019>022-054>056-020000-
NEBRASKA PANHANDLE

CITY           SKY/WX    TMP DP  RH WIND       PRES   REMARKS
SCOTTSBLUFF    CLOUDY    60  34  37 N23       29.74R
ALLIANCE       CLOUDY    58  34  40 N20       29.75R
CHADRON        MOSUNNY   57  31  37 NW18G29   29.77R
KIMBALL        CLOUDY    61  21  21 NW16G24   29.75R
SIDNEY         CLOUDY    63  26  24 N21       29.75R
$$

NEZ057>060-069>072-079>082-020000-
SOUTHWEST NEBRASKA

CITY           SKY/WX    TMP DP  RH WIND       PRES   REMARKS
NORTH PLATTE   MOSUNNY   72  34  24 N18G28    29.63R
IMPERIAL       MOSUNNY   76  26  15 N17       29.62R
LEXINGTON      CLOUDY    76  37  23 N26       29.57R
MCCOOK         MOSUNNY   87  24  10 NW13      29.54S
OGALLALA       MOSUNNY   71  35  27 N15       29.66R
$$

NEZ005>010-023>029-035>040-094-020000-
NORTH CENTRAL NEBRASKA

CITY           SKY/WX    TMP DP  RH WIND       PRES   REMARKS
VALENTINE      CLOUDY    64  29  26 N18       29.69S
AINSWORTH      CLOUDY    65  36  35 N23       29.67F
BROKEN BOW     CLOUDY    72  39  30 N28G35    29.59S
O`NEILL        CLOUDY    67  39  36 NW24G31   29.63R
ORD            CLOUDY    70  38  31 N26G35    29.58R
THEDFORD       CLOUDY    66  38  36 N16G24    29.68R
$$

NEZ041-046>049-061>064-073>077-083>087-020000-
SOUTH CENTRAL NEBRASKA

CITY           SKY/WX    TMP DP  RH WIND       PRES   REMARKS
GRAND ISLAND   PTSUNNY   83  43  24 S16G26    29.52F
AURORA         PTSUNNY   82  44  26 S21G29    29.53S
HASTINGS       MOSUNNY   83  45  26 S17G30    29.52F
HEBRON         SUNNY     81  42  25 S23G32    29.56R
HOLDREGE       CLOUDY    83  39  20 S15G21    29.52F
KEARNEY *      PTSUNNY   82  43  24 SE18      29.52F
YORK           MOSUNNY   82  46  28 S22G32    29.54F
$$

NEZ011>018-030>034-042>045-020000-
NORTHEAST NEBRASKA

CITY           SKY/WX    TMP DP  RH WIND       PRES   REMARKS
NORFOLK        PTSUNNY   79  44  28 NW21G29   29.51R
ALBION         CLOUDY    79  37  21 NW21G28   29.52S
BLAIR          SUNNY     83  44  25 S28G37    29.57S
COLUMBUS *     PTSUNNY   82  46  28 S24G31    29.54F
FREMONT        MOSUNNY   83  43  24 S18G28    29.55F
TEKAMAH        MOSUNNY   85  44  23 S32G39    29.52F HAZE
WAYNE          PTSUNNY   83  44  25 S29G36    29.49F
$$

NEZ050>053-065>068-078-088>093-020000-
SOUTHEAST NEBRASKA

CITY           SKY/WX    TMP DP  RH WIND       PRES   REMARKS
LINCOLN        MOSUNNY   83  45  26 S28G37    29.53F
OMAHA EPPLEY   MOSUNNY   83  46  27 S25G37    29.55F
BEATRICE       SUNNY     82  48  31 S24G31    29.57F
FALLS CITY     SUNNY     79  51  37 S25G37    29.62F
NEBRASKA CITY  SUNNY     80  42  25 S25G37    29.61R
PLATTSMOUTH    SUNNY     82  42  24 S25G33    29.59F
$$

NEZ044-045-051>053-067-020000-
OMAHA AREA

CITY           SKY/WX    TMP DP  RH WIND       PRES   REMARKS
OMAHA EPPLEY   MOSUNNY   83  46  27 S25G37    29.55F
BLAIR          SUNNY     83  44  25 S28G37    29.57S
FREMONT        MOSUNNY   83  43  24 S18G28    29.55F
MILLARD        SUNNY     83  48  30 S16G28    29.56F
OFFUTT AFB     SUNNY     82  48  30 S18G33    29.56F
PLATTSMOUTH    SUNNY     82  42  24 S25G33    29.59F
WAHOO          FAIR      84  40  21 S25       29.55S
$$


USA.gov is the U.S. government's official web portal to all federal, state and local government web resources and services.